TimeEDT,TemperatureF,Dew PointF,Humidity,Sea Level PressureIn,VisibilityMPH,Wind Direction,Wind SpeedMPH,Gust SpeedMPH,PrecipitationIn,Events,Conditions,WindDirDegrees,DateUTC
12:53 AM,78.1,66.9,68,29.96,10.0,East,6.9,-,N/A,,Partly Cloudy,100,2011-10-27 04:53:00
1:53 AM,75.9,68.0,76,29.95,10.0,SE,5.8,-,N/A,,Partly Cloudy,130,2011-10-27 05:53:00
2:53 AM,75.9,68.0,76,29.93,10.0,ESE,4.6,-,N/A,,Partly Cloudy,120,2011-10-27 06:53:00
3:53 AM,75.9,68.0,76,29.92,10.0,ESE,5.8,-,N/A,,Partly Cloudy,110,2011-10-27 07:53:00
4:53 AM,75.9,69.1,79,29.91,10.0,East,5.8,-,N/A,,Partly Cloudy,100,2011-10-27 08:53:00
5:53 AM,77.0,70.0,79,29.91,10.0,ESE,8.1,-,N/A,,Partly Cloudy,110,2011-10-27 09:53:00
6:53 AM,78.1,71.1,79,29.92,10.0,ESE,8.1,-,N/A,,Scattered Clouds,120,2011-10-27 10:53:00
7:53 AM,78.1,70.0,76,29.93,10.0,SE,9.2,-,N/A,,Scattered Clouds,130,2011-10-27 11:53:00
8:53 AM,79.0,69.1,72,29.94,10.0,ESE,9.2,-,N/A,,Scattered Clouds,120,2011-10-27 12:53:00
9:53 AM,82.0,70.0,67,29.95,10.0,ESE,11.5,-,N/A,,Partly Cloudy,110,2011-10-27 13:53:00
10:53 AM,82.0,70.0,67,29.95,10.0,ESE,11.5,-,N/A,,Partly Cloudy,120,2011-10-27 14:53:00
11:53 AM,82.0,71.1,69,29.95,10.0,ESE,9.2,-,N/A,,Mostly Cloudy,120,2011-10-27 15:53:00
12:53 PM,84.0,71.1,65,29.93,10.0,ESE,11.5,-,N/A,,Mostly Cloudy,110,2011-10-27 16:53:00
1:53 PM,82.9,71.1,67,29.90,10.0,East,13.8,-,N/A,,Mostly Cloudy,100,2011-10-27 17:53:00
2:53 PM,82.9,71.1,67,29.88,10.0,ESE,11.5,-,N/A,,Overcast,120,2011-10-27 18:53:00
3:53 PM,82.0,72.0,71,29.86,10.0,ESE,10.4,-,N/A,,Mostly Cloudy,110,2011-10-27 19:53:00
4:53 PM,82.0,73.0,74,29.87,10.0,ESE,6.9,-,N/A,,Scattered Clouds,120,2011-10-27 20:53:00
5:53 PM,81.0,73.0,77,29.88,10.0,ESE,8.1,-,N/A,,Mostly Cloudy,110,2011-10-27 21:53:00
6:53 PM,81.0,73.0,77,29.89,10.0,ESE,4.6,-,N/A,,Mostly Cloudy,110,2011-10-27 22:53:00
7:53 PM,80.1,73.0,79,29.89,10.0,ESE,5.8,-,N/A,,Scattered Clouds,110,2011-10-27 23:53:00
8:53 PM,80.1,73.0,79,29.91,10.0,ESE,6.9,-,N/A,,Scattered Clouds,110,2011-10-28 00:53:00
9:53 PM,80.1,73.9,81,29.92,10.0,ESE,5.8,-,N/A,,Scattered Clouds,110,2011-10-28 01:53:00
10:53 PM,80.1,73.9,81,29.94,10.0,SE,5.8,-,N/A,,Scattered Clouds,130,2011-10-28 02:53:00
11:53 PM,80.1,73.9,81,29.93,10.0,ESE,8.1,-,N/A,,Scattered Clouds,120,2011-10-28 03:53:00